www.pogodaiklimat.ru

Погода и климат >> Архив погоды >> Нигерия >> Абуджа


ПОГОДА в Абудже

  • Прогноз погоды в Абудже
  • Монитор погоды в Абудже

АРХИВ ПОГОДЫ в Абудже

Время (UTC), дата Ветер
(напр.,м/с)
 
Видим.   Явления Облачность Т
(С)
Тd
(С)
f
(%)
Тe
(С)
Тes
(С)
Комфортность P
(гПа)
Po
(гПа)
Тmin
(С)
Tmax
(С)
R
(мм)
R24
(мм)
S
(см)
15 15.09 штиль 0 12 км гроза без осадков 9/6 300 м
[Cb cap Ac trans Cs]
+26.4 +24.3 88 +37 +40 очень
душно
1012.3 971.4
18 15.09 штиль 0 10 км 9/3 300 м
[Cb cap Ac trans Cs]
+27.5 +24.5 84 +39 +39 очень
душно
1013.1 972.2 +39.0 0.4
21 15.09 штиль 0 10 км в посл. час гроза 9/3 270 м
[Sc Ac trans Cs]
+25.6 +24.2 92 +35 +35 очень
душно
1015.0 974.0
00 16.09 С 2 10 км 9/1 240 м
[Sc Ac trans Cs]
+25.1 +24.0 94 +35 +35 очень
душно
1014.1 973.2 0.4
03 16.09 ЮЗ 2 10 км 9/1 240 м
[Sc Ac trans Cs]
+24.6 +23.6 94 +33 +33 очень
душно
1013.3 972.2
06 16.09 ЮЗ 9 1200 м гроза, ливневой дождь {туман} 9/8 180 м
[Cb cap Ac As]
+24.0 +23.1 95 +32 +32 очень
душно
1014.9 973.9 +23.6 15
09 16.09 штиль 0 7000 м в посл. час гроза 9/6 210 м
[Sc Ac trans Cs]
+24.8 +23.6 93 +34 +38 очень
душно
1016.0 975.0
12 16.09 З 5 10 км 9/8 330 м
[Cu med, cong Ac trans Cs]
+28.3 +24.5 80 +40 +42 очень
душно
1013.7 972.8 36
15 16.09 С 84 10 км гроза без осадков 9/6 300 м
[Cb cap Ac As Cs]
+26.0 +21.6 77 +33 +33 очень
душно
1012.7 971.8
18 16.09 штиль 0 10 км гроза без осадков 9/3 210 м
[Cb cap Ac As Cs]
+22.9 +21.9 94 +31 +31 очень
душно
1012.4 971.5 +29.2 33
21 16.09 штиль 0 10 км в посл. час гроза 9/1 210 м
[Sc Ac trans Cs]
+22.8 +22.1 96 +31 +31 очень
душно
1014.8 973.8
00 17.09 В 3 3000 м дымка 9/6 210 м
[Sc Ac trans Cs]
+22.2 +21.9 98 +29 +29 очень
душно
1014.6 973.6 33
03 17.09 С 2 7000 м дымка 9/6 210 м
[Sc Ac trans Cs]
+22.5 +22.1 98 +30 +30 очень
душно
1013.5 972.6
06 17.09 штиль 0 8000 м дымка 9/8 210 м
[Sc Ac trans Cs]
+23.0 +21.8 93 +31 +31 очень
душно
1014.5 973.6 +22.0 33
12 17.09 З 3 12 км 9/6 360 м
[Cu med, cong Ac trans Cs]
+27.8 +22.7 74 +37 +41 очень
душно
1013.2 972.3
18 17.09 СВ 4 10 км 9/6 330 м
[Cb cap Ac trans Cs]
+24.0 +22.8 93 +32 +32 очень
душно
1012.2 971.3 +29.4 1
00 18.09 штиль 0 10 км 9/3 300 м
[Sc Ac trans Cs]
+24.0 +22.5 91 +31 +31 очень
душно
1023.5 972.6
03 18.09 штиль 0 10 км 9/3 300 м
[Sc Ac trans Cs]
+23.5 +22.6 95 +31 +31 очень
душно
1012.9 972.0
06 18.09 Ю 5 10 км 9/3 300 м
[Sc Ac trans Cs]
+23.8 +22.6 93 +31 +31 очень
душно
1013.9 973.0 +23.0 1
09 18.09 штиль 0 10 км 9/6 300 м
[Sc Ac trans Cs]
+26.6 +23.6 84 +36 +41 очень
душно
1015.6 974.6
12 18.09 В 5 10 км гроза без осадков 9/6 240 м
[Cb cap Ac As Cs]
+23.5 +21.6 89 +30 +33 очень
душно
1013.7 972.8 0.7
15 18.09 В 7 10 км гроза без осадков 9/4 270 м
[Cb cap Ac As Cs]
+24.9 +23.5 92 +34 +34 очень
душно
1011.2 970.4
18 18.09 ЮВ 6 10 км 9/3 200 м
[Sc Ac trans Cs]
+24.6 +21.6 83 +31 +31 очень
душно
1012.4 971.5 +29.7 0.7
21 18.09 штиль 0 10 км гроза без осадков 9/3 240 м
[Cb cap Ac trans Cs]
+23.5 +21.9 91 +30 +30 очень
душно
1014.3 973.4
00 19.09 С 3 10 км гроза без осадков 9/3 240 м
[Cb cap Ac trans Cs]
+23.5 +21.9 91 +30 +30 очень
душно
1015.2 974.2 0.7
03 19.09 штиль 0 10 км в посл. час гроза 9/5 240 м
[Sc Ac trans Cs]
+23.0 +21.8 93 +31 +31 очень
душно
1014.0 973.1
06 19.09 ЮВ 3 10 км 9/5 210 м
[Sc Ac As Ci fib]
+23.0 +22.1 95 +31 +31 очень
душно
1014.2 973.3 +22.5 0.7
09 19.09 ЮЗ 6 10 км 9/8 270 м
[Sc Ac As Cs]
+25.7 +22.5 83 +34 +35 очень
душно
1016.5 975.5
12 19.09 Ю 3 12 км 9/6 330 м
[Sc Ac trans Cs]
+27.3 +23.3 79 +37 +41 очень
душно
1015.3 974.3
15 19.09 ЮЗ 7 13 км 9/8 360 м
[Cb cap Ac trans Cs]
+29.6 +23.0 68 +40 +40 очень
душно
1012.2 971.4
18 19.09 штиль 0 10 км гроза без осадков 9/6 200 м
[Cb calv Ac cuf]
+21.5 +20.0 91 +27 +27 душно 1014.1 973.2 +30.1 76
21 19.09 СВ 6 10 км гроза без осадков 9/3 570 м
[Cb cap Ac As Cs]
+21.7 +20.0 90 +27 +27 душно 1016.4 975.4 525
06 20.09 С 1 4500 м дымка 9/5 180 м
[Frnb Ac As Cs]
+21.6 +20.7 95 +27 +27 душно 1015.7 974.7 +21.0 8
09 20.09 В 3 8000 м мгла 9/5 270 м
[Sc Ac trans Cs]
+25.0 +21.9 83 +32 +35 очень
душно
1016.4 997.5
12 20.09 штиль 0 10 км 9/3 330 м
[Cu med, cong Ac trans Cs]
+28.9 +23.2 71 +39 +50 очень
душно
1014.2 973.3
15 20.09 З 5 10 км 9/5 360 м
[Cu med, cong Ac trans Cs]
+29.9 +23.5 69 +41 +42 опасность
перегрева
1012.6 971.7
18 20.09 штиль 0 10 км гроза без осадков 9/3 300 м
[Sc Ac trans Cs]
+26.5 +24.1 87 +37 +37 очень
душно
1013.5 972.6 +30.2
21 20.09 штиль 0 10 км гроза без осадков 9/4 270 м
[Cb cap Ac trans Cs]
+25.4 +23.7 90 +35 +35 очень
душно
1015.9 974.9
00 21.09 штиль 0 10 км в посл. час гроза 9/4 270 м
[Sc Ac trans Cs]
+25.1 +23.7 92 +34 +34 очень
душно
1014.8 973.8
03 21.09 ЮВ 2 10 км 9/3 240 м
[Sc Ac trans Cs]
+24.0 +23.3 96 +32 +32 очень
душно
1013.9 973.0
06 21.09 СЗ 3 10 км 9/1 240 м
[Sc Cs]
+23.3 +22.4 95 +32 +32 очень
душно
1015.1 974.1 +23.1
09 21.09 ЮЗ 6 10 км 9/6 300 м
[Cu med, cong Ac trans Cs]
+27.0 +24.2 85 +38 +39 очень
душно
1016.2 975.2
12 21.09 З 6 15 км 9/5 400 м
[Cu med, cong Cs]
+30.2 +24.0 69 +42 +45 опасность
перегрева
1014.2 973.3
15 21.09 З 7 15 км 9/5 420 м
[Cu med, cong Cs]
+31.6 +24.4 66 +44 +45 опасность
перегрева
1011.6 970.8
18 21.09 СЗ 3 5000 м гроза, ливневой дождь 9/5 540 м
[Cb cap Ac As]
+21.7 +20.6 93 +27 +27 душно 1014.2 973.3 +31.6 21
21 21.09 ЮЗ 3 8000 м гроза без осадков 9/5 240 м
[Cb cap Ac trans Cs]
+22.4 +21.8 96 +30 +30 очень
душно
1014.7 973.7
00 22.09 штиль 0 10 км 9/4 270 м
[Sc Ac trans Cs]
+22.3 +21.9 98 +30 +30 очень
душно
1014.4 973.5 1
03 22.09 С 2 7000 м дымка 9/9 270 м
[]
+22.5 +21.9 96 +30 +30 очень
душно
1013.5 972.6
06 22.09 штиль 0 10 км 9/3 270 м
[Sc Ac trans Cs]
+22.2 +21.8 98 +29 +30 очень
душно
1014.2 973.3 +21.0 21
09 22.09 ЮЗ 5 10 км 9/4 300 м
[Sc diur, vesp Ac trans Cs]
+26.2 +22.9 82 +35 +37 очень
душно
1015.3 974.3
12 22.09 З 5 10 км 9/5 400 м
[Cu med, cong Ac trans Cs]
+29.7 +23.9 71 +41 +44 опасность
перегрева
1013.0 992.1

 

Местоположение метеостанции Абуджа (Нигерия): широта 9.25 долгота 7.00 высота над уровнем моря 344 м.

В архиве по умолчанию представлена погода в Абудже за последнюю неделю. Архивные данные за месяц целиком и за предыдущие месяцы, начиная с января 2011 года, Вы можете получить, выбрав интересующий диапазон дат из раскрывающегося списка и нажав кнопку "Ввод!".


*Определитесь, кто Вы:
робот инопланетянин человек

Внимание! Время в таблицах - всемирное. Для получения местного времени необходимо прибавить поправку, которая равна 3 ч.

Смотрите также архив погоды в соседних городах и на ближайших метеорологических станциях:

Погода в Биде (Нигерия) (109 км)
Погода в Лафии (Нигерия) (185 км)
Погода в Джосе (Нигерия) (220 км)
Погода в Макурди (Нигерия) (239 км)
Погода в Илорине (Нигерия) (279 км)
Погода в Акуре (Нигерия) (288 км)
Погода в Йелве (Нигерия) (306 км)
Погода в Энугу (Нигерия) (315 км)
Погода в Ошогбо (Нигерия) (322 км)
Погода в Кано (Нигерия) (353 км)

Пояснения к столбцам:

Ветер - указаны скорость ветра в м/с - средняя за 10 мин, порывы в срок и между сроками (в фигурных скобках) и направление, откуда дует ветер: С - северный, СВ - северо-восточный, В - восточный, ЮВ - юго-восточный, Ю - южный, ЮЗ - юго-западный, З - западный, СЗ - северо-западный.
Видимость - горизонтальная дальность видимости в метрах или километрах. При видимости от 1 до 10 км при отсутствии осадков обычно наблюдается дымка, при ухудшении видимости до 1 км и менее - туман. В сухую погоду видимость может ухудшаться дымом, пылью или мглою.
Явления - указаны атмосферные явления, наблюдавшиеся в срок или в последний час перед сроком; фигурными скобками обозначены явления, наблюдавшиеся между сроками (за 1-3 часа до срока); квадратными скобками обозначены град или гололедные отложения с указанием их диаметра в мм.
Облачность - указаны через наклонную черту общая и нижняя облачность в баллах и высота нижней границы облаков в метрах; квадратными скобками обозначены формы облаков: Ci - перистые, Cs - перисто-слоистые, Cc - перисто-кучевые, Ac - высококучевые, As - высокослоистые, Sc - слоисто-кучевые, Ns - слоисто-дождевые, Cu - кучевые, Cb - кучево-дождевые. Подробнее классификацию облаков см. в Атласе облаков (PDF).
T - Температура воздуха - температура, измеренная на высоте 2 м над землей.
Td - Температура точки росы - температура, при понижении до которой содержащийся в воздухе водяной пар достигнет насыщения.
f - Относительная влажность воздуха - влажноcть воздуха, измеренная на высоте 2 м над землей.
Te - Эффективная температура - температура, которую ощущает одетый по сезону человек в тени. Характеристика душности погоды. При расчете учитывается влияние влажности воздуха и скорости ветра на теплоощущения человека.
Tes - Эффективная температура на солнце - температура, которую ощущает человек, с поправкой на солнечный нагрев. Характеристика знойности погоды. Зависит от высоты солнца над горизонтом, облачности и скорости ветра. Ночью, в пасмурную погоду, а также при ветре 12 м/с и более поправка равна нулю.
P - Атмосферное давление - приведенное к уровню моря атмосферное давление.
Po - Атмосферное давление - измеренное на уровне метеостанции атмосферное давление.
Tmin - Минимальная температура - минимум температуры воздуха на высоте 2 м над землей.
Tmax - Максимальная температура - максимум температуры воздуха на высоте 2 м над землей.
R - Количество осадков - Количество выпавших осадков за период времени, мм. При наведении курсора мыши на число - период времени, за который выпало указанное количество осадков.
R24 - Количество осадков - Количество выпавших осадков за 24 часа, мм.
S - Снежный покров - Высота снежного покрова, см. При наведении курсора мыши на число - состояние снежного покрова и степень покрытия местности в баллах.